Location: Gebenbach
(49.5378°N, 11.8735°E)
Time: 05:27:30
(UTC+00:00)

Geosat - Pass Details

Date: 29 October 2020
Orbit: 763 x 766 km, 108.0° (Epoch: 25 November)

Event Time Altitude Azimuth Distance (km) Brightness Sun altitude
Exits shadow 17:52:54 39° 96° (E) 1,139 4.4 -19.6°
Maximum altitude 17:53:25 40° 112° (ESE) 1,116 4.4 -19.7°
Drops below altitude 10° 17:58:08 10° 182° (S) 2,298 6.5 -20.5°
Sets 18:00:32 0° 190° (S) 3,220 7.3 -20.8°
